Preview of NWS' New Version of Forecast
This preview is not operational and should not be used for support decisions.

Regional Weather Roundup (RWR)

Issued by National Weather Service (NWS)

                            
000
ASUS43 KLSX 190057
RWRMO 

WEATHER SUMMARY FOR MISSOURI
NATIONAL WEATHER SERVICE SPRINGFIELD MO
700 PM CST MON FEB 18 2019

NOTE: "FAIR" INDICATES FEW OR NO CLOUDS BELOW 12,000 FEET WITH NO
       SIGNIFICANT WEATHER AND/OR OBSTRUCTIONS TO VISIBILITY.
       CURRENT SKY AND/OR WEATHER CONDITIONS ARE NOT AVAILABLE FOR
       CHILLICOTHE AND FARMINGTON.

MOZ001>031-035>038-043-044-053-054-190200-
...NORTHERN AND WESTERN MISSOURI...
  
CITY           SKY/WX    TMP DP  RH WIND       PRES   REMARKS
KANSAS CTY INT MOCLDY    21  13  71 NE6       30.52R WCI  13          
ST JOSEPH      PTCLDY    17  13  84 N5        30.55R WCI  10          
CHILLICOTHE      N/A     27  17  66 CALM      30.54R                  
     
$$
MOZ066>068-077>081-088>096-101>105-190200-
...SOUTHWEST MISSOURI...
  
CITY           SKY/WX    TMP DP  RH WIND       PRES   REMARKS
SPRINGFIELD    CLOUDY    28  16  60 NE9       30.42R WCI  19          
JOPLIN         CLOUDY    27  18  69 N8        30.46R WCI  19          
BRANSON        CLOUDY    30  19  64 NE6       30.40S WCI  24          
               
$$
MOZ032>034-039>042-045>050-055>058-069>072-190200-
...CENTRAL MISSOURI...  
  
CITY           SKY/WX    TMP DP  RH WIND       PRES   REMARKS
COLUMBIA       NOT AVBL                                               
JEFFERSON CITY CLOUDY    29  17  61 N9        30.53R WCI  20          
ROLLA          CLOUDY    24  15  68 N3        30.48S                  
SEDALIA        CLOUDY    24  18  77 N6        30.51S WCI  17          
WARRENSBURG    CLOUDY    25  18  74 N5        30.53R WCI  19          
               
$$
MOZ051-052-059>065-190200-
...EAST CENTRAL MISSOURI...
  
CITY           SKY/WX    TMP DP  RH WIND       PRES   REMARKS
ST LOUIS INTL  CLOUDY    30  17  58 N7        30.53R WCI  23          
                   
$$
MOZ072>076-082>087-097>100-106>115-190200-
...SOUTH CENTRAL AND SOUTHEAST MISSOURI...
  
CITY           SKY/WX    TMP DP  RH WIND       PRES   REMARKS
CAPE GIRARDEAU FAIR      31  21  66 NE9       30.50R WCI  23          
POPLAR BLUFF   FAIR      34  26  72 NE9       30.47R WCI  27          
WEST PLAINS    CLOUDY    31  21  66 N9        30.41F WCI  23          
                                       
$$